Regional Weather Roundup
Issued by NWS

Home | Current Version | Previous Version | Graphics & Text | Print | Product List | Glossary Off
Versions: 1 2 3 4 5 6 7 8 9 10 11 12 13 14 15 16 17 18 19 20 21 22 23 24 25 26 27 28 29 30 31 32 33 34 35 36 37 38 39 40 41 42 43 44 45 46 47 48 49 50

000
ASUS43 KTOP 181208
RWRKS

WEATHER ROUNDUP FOR KANSAS
NATIONAL WEATHER SERVICE GOODLAND KS
700 AM CDT FRI APR 18 2014

NOTE:  "FAIR" INDICATES FEW OR NO CLOUDS BELOW 12,000 FEET WITH NO
SIGNIFICANT WEATHER AND/OR OBSTRUCTIONS TO VISIBILITY.

KSZ001>006-013>018-027>032-041>047-181300-
NORTHWEST KANSAS

CITY           SKY/WX    TMP DP  RH WIND       PRES   REMARKS
GOODLAND       CLEAR     33  31  92 S14       30.08S WCI  23
6HR MIN TEMP:  33; 6HR MAX TEMP:  40;

HAYS           CLEAR     34  30  86 S3        30.19F
HILL CITY      CLEAR     37  34  89 CALM      30.17F
6HR MIN TEMP:  36; 6HR MAX TEMP:  42;

RUSSELL        CLEAR     35  32  88 S9        30.19S
6HR MIN TEMP:  35; 6HR MAX TEMP:  39;

$$

KSZ061>065-074>080-084>089-181300-
SOUTHWEST KANSAS

CITY           SKY/WX    TMP DP  RH WIND       PRES   REMARKS
DODGE CITY     PTCLDY    37  35  92 S8        30.20S FOG
6HR MIN TEMP:  37; 6HR MAX TEMP:  43;

ELKHART          N/A     36  28  73 S12         N/A  WCI  28
GARDEN CITY    CLEAR     38  36  92 S8        30.16F FOG
6HR MIN TEMP:  37; 6HR MAX TEMP:  42;

GREAT BEND     CLEAR     32  27  80 S7        30.22S
LIBERAL        CLEAR     41  36  81 S10       30.20S
PRATT          CLEAR     32  32 100 S6        30.23S FOG
$$

KSZ066>073-081>083-090>101-181300-
SOUTHEAST KANSAS

CITY           SKY/WX    TMP DP  RH WIND       PRES   REMARKS
CHANUTE        CLEAR     34  32  92 E3        30.29R FOG
6HR MIN TEMP:  31; 6HR MAX TEMP:  37;

COFFEYVILLE    CLEAR     34  33  96 N5        30.29R FOG
6HR MIN TEMP:  34; 6HR MAX TEMP:  38;

HUTCHINSON     CLEAR     31  30  96 S3        30.26R FOG
6HR MIN TEMP:  29; 6HR MAX TEMP:  36;

MEDICINE LODGE   N/A     32  31  96 CALM      30.24S
NEWTON         CLEAR     36  28  75 SW5       30.29R
PARSONS        CLEAR     38  35  89 NE3       30.29R FOG
6HR MIN TEMP:  34; 6HR MAX TEMP:  38;

WICHITA INTL   FAIR      32  29  88 CALM      30.27R FOG
6HR MIN TEMP:  31; 6HR MAX TEMP:  39;

WICHITA JABRA  CLEAR     35  32  88 CALM      30.27R FOG
6HR MIN TEMP:  31; 6HR MAX TEMP:  38;

WICHITA MCCONL CLEAR     37  37 100 SE1       30.28R FOG
WINFIELD       CLEAR     33  30  88 SE3       30.28R FOG
6HR MIN TEMP:  30; 6HR MAX TEMP:  35;

$$

KSZ007>012-019>026-033>040-048>060-102>105-181300-
NORTHEAST KANSAS

CITY           SKY/WX    TMP DP  RH WIND       PRES   REMARKS
CONCORDIA      CLEAR     31  29  92 SE5       30.25R FOG
6HR MIN TEMP:  30; 6HR MAX TEMP:  42;

EMPORIA        FOG       29  28  96 S5        30.28R VSB 1
6HR MIN TEMP:  29; 6HR MAX TEMP:  36;

LAWRENCE       CLEAR     29  27  92 CALM      30.31R FOG
6HR MIN TEMP:  29; 6HR MAX TEMP:  33;

MANHATTAN      FOG       30  28  92 CALM      30.29R VSB 3/4
6HR MIN TEMP:  29; 6HR MAX TEMP:  35;

OLATHE IND     CLEAR     32  30  92 CALM      30.30R FOG
6HR MIN TEMP:  29; 6HR MAX TEMP:  37; 6HR PCP: TRACE;

OLATHE EXE     CLEAR     35  33  92 CALM      30.29R
6HR MIN TEMP:  32; 6HR MAX TEMP:  38;

SALINA         CLEAR     33  30  88 SE3       30.27R FOG
6HR MIN TEMP:  32; 6HR MAX TEMP:  36;

TOPEKA BILLARD FOG       31  29  92 E3        30.31R VSB 1/2
6HR MIN TEMP:  31; 6HR MAX TEMP:  39;

TOPEKA FORBES  CLEAR     30  27  88 CALM      30.29R FOG
6HR MIN TEMP:  30; 6HR MAX TEMP:  37;

$$



USA.gov is the U.S. government's official web portal to all federal, state and local government web resources and services.